Location: Kampung Segan
(3.1399°N, 113.1002°E)
Time: 13:21:01
(UTC+00:00)

Cosmos 1932 - Pass Details

Date: 05 August 2024
Orbit: 943 x 986 km, 65.0° (Epoch: 07 September)

Event Time Altitude Azimuth Distance (km) Brightness Sun altitude
Rises 12:42:33 0° 337° (NNW) 3,603 8.1 -29.6°
Reaches altitude 10° 12:45:04 10° 336° (NNW) 2,664 7.3 -30.2°
Enters shadow 12:50:46 75° 312° (NW) 989 4.5 -31.5°
